Theta_e
315 315 316 322 321 322 324 323 326 325 327 325 325 325 324 321 320 320 320 320 319 319 320 321 322 323 323 324 329 328 326 326 326 326 326 326 325 324 324 325 324 324 323 322
314 313 313 316 319 320 319 322 322 322 323 322 320 320 321 321 320 320 319 319 319 321 322 321 318 317 318 320 321 328 328 327 326 326 326 326 326 325 325 325 325 325 324 323
313 313 317 317 315 316 318 322 321 322 320 320 320 321 317 319 318 317 317 319 321 319 317 315 312 311 312 315 320 322 324 328 328 327 326 326 326 326 325 325 325 326 325 325
312 313 317 317 315 315 316 316 315 315 318 318 317 316 315 315 316 317 319 319 317 314 311 308 307 307 308 313 311 313 314 316 320 327 327 326 325 326 326 326 325 324 325 325
312 313 314 312 313 312 312 313 315 313 317 315 315 314 314 314 314 316 316 315 312 308 305 303 302 302 306 307 307 307 308 310 315 313 316 324 326 325 326 326 325 324 324 324
309 316 313 312 313 314 314 316 316 316 316 315 315 316 315 315 314 312 311 310 308 304 301 299 298 299 301 302 302 303 305 306 307 305 306 310 318 327 326 326 325 325 324 324
310 313 314 312 315 315 316 319 315 314 314 313 314 313 313 313 310 307 305 304 304 301 298 297 296 296 297 297 296 298 299 300 300 300 299 301 307 316 326 326 326 325 324 322
310 310 312 312 314 317 316 314 313 312 312 312 311 310 310 308 305 302 300 298 298 296 296 294 293 293 294 294 293 295 295 294 294 295 298 295 297 303 307 319 325 318 312 306
310 310 313 314 316 314 313 313 312 310 309 309 308 307 306 303 301 298 295 294 293 294 293 290 289 289 290 290 291 293 292 291 290 289 291 295 291 291 295 298 300 297 296 292
312 314 313 312 310 309 309 308 308 306 305 305 303 302 300 297 296 294 291 291 290 289 288 287 286 287 287 288 290 291 290 289 287 286 286 286 288 287 287 289 292 291 290 288
313 312 311 308 307 306 306 305 305 303 301 300 299 297 295 292 291 290 288 287 286 286 285 285 285 285 285 287 288 289 287 287 286 285 285 285 284 285 285 285 287 288 287 287
311 306 308 305 304 303 303 302 299 299 295 293 293 292 291 289 287 286 285 284 284 284 284 285 284 284 284 285 285 286 285 285 284 284 284 284 284 283 284 284 284 285 284 284
301 303 301 299 298 298 299 297 294 292 291 289 287 287 286 285 284 284 283 282 282 282 283 283 283 284 284 285 285 284 284 283 283 283 283 283 282 282 282 282 283 283 283 284
297 302 301 297 296 295 295 293 291 288 287 286 284 282 282 281 281 281 281 281 281 280 280 281 282 282 284 283 283 284 283 283 283 282 282 281 281 281 281 281 280 280 280 281
296 298 297 294 292 291 290 290 288 287 285 284 283 282 281 280 279 279 279 279 279 279 279 279 280 281 282 282 281 281 282 281 281 280 280 280 280 280 280 280 279 279 278 278
293 292 293 292 289 288 288 287 286 285 284 282 281 280 279 278 277 276 275 276 276 277 277 277 278 279 280 280 280 279 280 280 280 279 278 278 277 277 277 276 276 275 275 274
290 290 290 291 288 286 285 284 283 282 280 279 279 279 278 276 276 275 274 274 273 274 275 276 277 278 279 279 278 278 278 278 278 278 278 277 277 276 275 275 274 274 273 273
287 287 287 287 286 284 283 282 281 279 278 277 276 276 275 274 274 274 273 272 272 273 274 275 275 276 277 277 277 277 277 276 276 276 276 275 275 274 274 273 273 273 272 272
284 283 283 282 282 281 280 279 279 278 277 277 276 275 274 273 272 272 272 272 271 271 272 273 274 274 275 275 276 275 275 275 274 274 274 274 274 273 273 272 272 271 271 270
281 280 280 279 279 278 277 277 276 276 275 275 274 274 273 273 273 271 270 270 270 271 271 272 272 272 273 273 273 273 273 273 273 272 272 272 271 271 271 271 270 270 269 269
278 278 278 278 277 277 276 276 276 275 275 274 273 272 271 271 271 272 270 269 269 269 270 270 271 271 271 271 271 271 271 271 271 271 270 270 270 270 269 269 269 268 268 267
279 278 277 277 276 276 276 275 275 275 274 274 274 273 272 271 270 269 268 268 268 268 269 269 270 270 270 270 270 269 269 269 269 269 269 268 268 268 268 267 267 267 266 266
279 278 277 276 276 275 275 274 274 274 273 273 273 272 271 270 270 269 269 268 267 267 268 268 269 269 268 268 269 269 269 268 268 268 268 267 267 267 266 266 265 265 265 265
279 278 277 276 276 276 275 274 274 273 273 272 272 272 272 270 269 268 268 268 268 267 268 268 268 268 268 268 268 267 267 267 267 267 267 267 266 266 265 265 264 264 264 264
279 278 278 278 277 277 276 275 275 274 274 273 272 271 270 269 269 268 268 268 269 268 267 267 267 267 267 267 267 267 266 266 266 266 266 266 265 265 264 264 263 263 263 263
279 278 278 278 277 277 277 277 275 274 273 272 271 270 270 270 269 269 269 269 269 268 268 267 267 266 266 266 266 266 266 265 265 265 264 264 264 264 263 263 262 262 261 261
278 278 277 276 275 275 275 274 273 272 273 272 271 271 270 270 270 269 269 269 268 268 268 268 267 267 266 266 265 266 265 265 264 264 264 264 264 263 263 262 261 260 260 260
Wind_Speed
9 12 8 7 8 6 11 12 6 2 10 9 4 11 6 13 9 15 14 13 13 13 12 13 22 24 22 21 23 32 31 31 34 35 36 34 37 38 38 39 40 40 39 40
8 10 13 7 9 8 3 3 8 6 9 10 10 4 5 13 10 12 11 10 11 15 16 15 20 21 23 23 24 12 27 33 30 35 37 39 39 36 36 38 40 38 41 42
4 8 6 5 9 10 12 16 14 9 8 12 7 9 3 10 10 8 7 13 14 14 14 18 20 19 22 22 22 20 16 20 25 29 34 38 36 34 38 39 36 38 38 38
3 7 5 6 6 10 12 8 9 3 6 11 15 16 12 6 7 11 15 14 14 12 18 23 27 31 24 20 21 22 23 22 25 17 27 31 32 36 38 37 37 37 38 37
2 3 9 14 2 3 1 3 7 5 11 11 12 11 11 11 13 14 14 12 15 19 19 22 26 29 28 27 25 21 22 24 23 26 26 22 30 36 38 34 34 36 36 36
2 4 5 10 5 9 2 3 11 15 14 15 14 8 5 16 16 16 16 21 20 20 22 25 26 27 23 24 25 26 26 24 22 25 27 25 21 31 34 34 35 33 32 34
7 4 7 4 4 6 4 2 10 14 12 13 12 5 8 14 17 20 21 24 21 22 21 21 23 23 21 21 24 27 26 23 21 22 23 25 29 22 28 31 31 30 31 28
4 4 7 7 3 3 3 8 12 14 13 12 12 14 16 17 17 17 17 23 24 21 20 21 22 22 20 21 26 25 24 23 21 21 23 25 27 24 20 16 31 25 23 15
7 6 3 10 12 10 9 11 13 13 12 12 14 15 14 14 16 15 19 20 21 19 17 19 21 21 20 24 26 23 22 22 24 21 25 25 29 30 25 22 8 8 13 15
2 11 13 15 15 16 12 15 14 11 11 11 12 12 13 13 12 11 17 18 18 18 18 19 22 21 21 24 23 18 19 20 22 23 24 30 31 30 27 25 17 14 14 15
3 10 14 11 12 10 13 15 11 12 13 12 12 12 11 11 12 13 16 17 18 19 18 20 21 22 24 25 20 15 16 18 19 21 22 25 37 34 32 35 20 16 16 17
4 10 9 6 10 11 13 11 13 12 14 15 12 10 10 10 12 13 14 15 16 17 16 18 21 23 24 23 20 15 14 17 19 19 20 21 23 34 46 47 45 39 38 30
3 6 13 13 11 11 9 12 14 14 12 12 14 14 14 11 14 14 16 16 17 16 17 19 19 22 27 25 24 23 19 19 19 21 19 18 20 21 25 38 47 41 41 43
11 9 8 10 7 11 12 16 20 19 17 15 16 17 16 15 15 16 16 16 15 17 20 20 22 27 25 27 26 23 23 25 24 24 22 22 21 21 22 24 27 27 36 36
14 10 10 12 12 11 13 11 13 11 11 14 16 17 17 15 16 17 17 16 18 21 22 24 24 27 25 25 27 28 24 25 25 26 26 22 19 22 21 23 23 23 24 30
9 12 11 10 11 10 10 11 12 10 10 13 15 18 19 19 19 21 21 21 21 20 22 24 27 27 25 24 26 28 29 26 25 24 24 23 22 24 23 25 25 23 23 23
6 11 10 9 10 11 10 9 10 10 12 14 14 15 18 19 19 19 19 22 25 23 24 26 26 27 26 25 25 25 26 26 25 25 23 22 23 24 23 23 22 23 24 26
10 10 10 9 9 10 11 14 15 16 14 16 19 19 18 17 15 16 17 19 23 27 27 24 24 25 25 24 24 23 24 24 24 23 22 23 23 23 22 21 20 19 21 22
14 12 13 15 13 13 13 14 16 16 16 16 18 17 18 18 18 18 19 19 19 19 23 20 21 22 23 21 21 22 25 25 23 20 19 21 22 21 20 19 19 19 19 20
12 14 15 16 17 16 15 16 17 17 17 19 19 18 17 15 15 17 19 19 18 16 17 18 19 21 21 20 21 23 24 22 21 22 23 23 23 22 22 21 21 21 21 20
9 13 13 14 15 17 17 16 16 15 16 18 18 16 16 18 17 13 14 14 16 13 15 20 21 18 20 20 20 21 22 23 23 22 21 22 23 22 22 21 21 20 18 18
11 11 13 14 14 15 17 18 18 18 17 16 12 13 13 13 17 19 17 13 14 13 16 19 20 18 18 19 21 21 20 21 21 20 20 19 18 19 19 16 15 17 15 13
10 11 12 12 12 13 16 16 16 16 17 15 14 14 15 14 13 11 9 12 14 14 17 18 16 16 17 17 17 19 20 19 18 17 16 14 13 13 14 15 13 12 11 10
11 11 12 14 13 10 10 12 13 14 14 14 15 15 11 14 14 13 11 9 10 13 14 14 14 14 14 17 15 17 15 16 16 15 13 13 12 11 9 9 8 7 6 5
11 11 11 11 8 8 10 10 10 11 11 11 11 12 12 12 11 9 10 10 10 9 13 10 11 12 14 14 14 12 12 11 10 11 10 9 9 7 7 7 8 7 6 7
9 9 11 11 9 5 4 7 10 10 12 13 11 9 9 9 8 8 8 8 8 8 7 9 14 12 9 11 10 11 11 10 12 6 9 7 6 6 6 7 5 6 7 8
7 5 7 7 7 10 12 13 13 12 11 13 12 9 8 9 8 7 6 7 7 7 8 8 9 10 8 7 9 7 8 8 8 8 6 7 6 7 8 9 10 7 5 7
Wind_Direction
287 292 266 259 277 233 231 238 225 307 284 289 225 287 307 315 40 62 53 45 42 48 46 33 29 31 19 3 211 199 205 208 205 203 205 208 211 214 216 217 219 219 219 219
299 279 281 271 250 173 246 231 269 308 303 268 243 65 87 261 70 61 54 46 51 48 42 46 28 14 7 5 13 252 211 216 217 214 209 212 214 213 213 217 219 219 219 220
278 296 329 284 236 218 217 177 225 197 209 188 215 129 359 81 69 56 44 62 61 50 39 26 17 14 7 354 356 358 4 260 233 222 214 214 214 213 218 220 219 220 222 221
283 320 259 240 257 223 228 239 233 262 88 106 74 71 55 60 83 59 69 64 56 47 38 21 8 1 360 12 18 13 7 1 358 298 237 221 212 214 221 222 220 221 224 225
224 265 299 313 130 12 247 22 8 243 127 99 115 83 35 8 55 72 73 70 69 63 46 29 12 357 353 359 5 10 4 355 352 350 323 302 217 218 222 220 221 221 223 225
307 263 226 226 317 335 304 84 27 57 61 68 74 67 11 58 75 69 58 57 54 47 41 29 10 359 360 360 0 359 353 346 346 347 347 332 318 237 224 220 221 220 222 221
213 235 284 296 323 319 145 99 61 58 58 58 71 75 46 65 62 62 55 48 50 49 45 23 10 7 7 3 360 344 342 344 349 354 351 348 339 318 245 218 216 217 216 214
184 210 246 323 339 109 136 53 66 59 50 57 48 50 55 51 53 49 45 40 37 39 38 24 13 9 4 0 347 347 350 351 355 7 10 1 359 353 346 250 205 198 189 178
171 204 96 23 63 99 96 85 57 60 50 49 52 43 54 51 48 46 42 38 30 31 25 20 13 11 359 348 349 350 360 5 3 9 27 26 20 11 11 4 20 113 130 107
37 44 61 55 26 67 68 75 83 84 66 59 61 45 54 46 42 42 36 30 24 22 18 12 8 8 3 354 356 0 11 14 17 17 26 41 47 38 26 17 12 38 78 88
340 98 93 64 54 44 62 51 58 69 62 59 66 48 56 44 38 35 30 27 28 24 20 14 9 9 9 5 9 15 27 29 30 31 33 46 54 57 60 46 48 51 64 82
55 341 99 92 57 64 57 42 54 70 71 54 61 60 68 54 48 43 38 33 38 34 27 20 20 18 17 21 27 32 41 43 42 45 42 49 57 63 64 72 73 71 77 72
29 359 86 88 56 37 59 77 68 63 62 72 60 64 70 65 54 54 50 46 41 35 33 30 26 29 29 38 40 42 48 52 51 53 53 51 53 59 71 65 71 67 77 81
15 131 56 51 66 40 27 92 85 79 72 74 81 75 72 74 65 60 53 49 47 44 35 32 33 31 39 47 54 49 53 58 59 57 56 58 60 59 64 66 65 59 60 71
4 60 70 78 66 53 38 73 76 75 77 76 75 83 82 74 66 56 51 53 52 48 40 37 36 33 51 54 51 50 50 54 56 61 61 60 56 59 53 62 64 57 57 66
354 34 38 77 84 73 72 76 85 82 84 86 83 85 87 82 72 62 52 49 49 41 36 38 37 36 48 62 59 57 54 59 63 62 62 59 56 59 56 57 58 56 51 50
21 22 21 47 76 76 72 73 84 84 76 69 73 80 80 79 74 62 54 51 54 46 39 40 40 50 55 58 60 58 64 61 64 63 60 62 62 62 64 66 65 63 62 66
58 51 44 56 79 85 80 78 80 82 83 86 84 81 76 71 70 65 58 55 52 50 48 41 47 55 57 62 67 65 64 63 62 61 65 66 68 71 69 69 68 70 69 71
56 60 61 67 74 80 78 77 82 86 85 86 88 88 87 81 74 69 64 56 48 39 32 47 47 52 58 54 65 68 73 74 69 65 63 68 70 72 75 76 77 77 77 78
64 67 71 72 73 80 80 80 85 83 88 92 90 81 71 77 90 79 68 59 49 47 43 55 49 52 58 64 70 72 76 76 72 72 77 77 76 75 78 81 80 82 82 84
64 66 68 75 75 78 84 92 93 89 92 97 94 90 88 81 82 83 72 61 45 52 58 59 55 53 59 65 71 75 77 76 77 75 75 77 77 78 79 79 77 76 81 83
87 85 84 86 84 81 85 89 90 88 84 88 107 108 104 104 88 76 69 70 59 59 66 62 59 61 70 74 73 72 73 75 75 75 75 75 77 77 74 73 71 71 75 74
96 97 97 94 95 93 93 92 92 91 84 84 86 92 90 83 78 79 72 54 63 71 68 60 58 63 65 66 70 76 76 72 72 74 74 74 73 72 71 73 68 61 59 56
119 122 125 127 122 115 112 115 107 97 89 79 70 75 99 94 83 69 83 70 73 60 63 60 61 56 61 65 62 60 64 68 66 64 65 66 70 71 61 46 40 55 49 43
122 126 128 125 120 128 138 146 132 114 100 88 82 73 67 71 86 90 79 70 71 58 56 55 64 62 59 54 56 55 48 48 50 56 55 54 45 38 27 22 33 27 4 351
93 85 72 68 64 76 136 145 106 122 118 109 101 93 90 85 86 83 82 74 67 63 53 49 49 47 63 54 48 46 44 45 39 54 45 34 25 20 12 3 342 341 333 328
102 134 117 92 67 72 72 79 88 82 101 120 107 103 95 90 90 80 73 71 64 55 50 42 30 36 46 44 34 33 24 19 15 16 18 10 358 345 342 343 339 332 319 311